Content
SEND FEEDBACK

Daily
Averages
Monthly
Summary
Canada

MONTREAL, QUEBEC


Home > North America > Canada > Quebec
Elevation: 118 feet     Latitude: 45 28N     Longitude: 073 45W

WEATHER
 
SELECT A DAY
Number of Records: 201,705;   Date Range: 1/1/95 - 10/30/14
 
SHARE

PRINT THIS DATA

[ ← Previous Day ]
WEATHER ALMANAC - APRIL 8, 2013
[ Next Day → ]
[ °C ]   °F
Weather ElementAverageHighLow
Temperature42.7 °F48.2 °F (6:00 pm)37.4 °F (5:00 am)
Dewpoint30.2 °F34 °F (2:00 am)26.6 °F (12:00 pm)
Humidity60.4 %76 % (1:00 am)40 % (2:00 pm)
Barometer30.07 in30.17 in (11:00 am)29.92 in (1:00 am)
Wind Speed10.3 mph17.3 mph (3:00 am)
Weather ElementAverage
Visibility17.7 mi
Wind DirectionSSW (197.4 °)

Weather ElementTotal
Precipitation---
Heating Degree Days22.2 (Base 65)
Averaged from 27 records on April 8, 2013
WEATHER CONDITIONS BREAKOUT
WIND DIRECTION BREAKOUT
WEATHER BY HOUR - APRIL 8, 2013
[ °C ]   °F
Local TimeTemperatureDewpointHumidityBarometerVisibilityWind DirectionWind SpeedGust SpeedPrecipitationEventsConditions
1:00 AM41.0 °F33.8 °F76 %29.92 in15.0 miWSW (240°)16.1 mphOvercast
2:00 AM41.0 °F34.0 °F67 %29.94 in15.0 miWest (260°)13.8 mphPartly Cloudy
2:00 AM41.0 °F33.8 °F76 %29.94 in15.0 miWest (260°)15.0 mphOvercast
3:00 AM41.0 °F32.0 °F70 %29.97 in15.0 miWest (270°)17.3 mphOvercast
4:00 AM39.2 °F32.0 °F75 %29.99 in15.0 miWest (270°)10.4 mphMostly Cloudy
5:00 AM37.4 °F30.2 °F75 %30.01 in15.0 miWest (270°)9.2 mphPartly Cloudy
6:00 AM37.4 °F30.2 °F75 %30.04 in15.0 miWest (270°)9.2 mphOvercast
7:00 AM39.2 °F30.2 °F70 %30.08 in15.0 miWest (270°)9.2 mphOvercast
8:00 AM40.0 °F29.0 °F53 %30.11 in15.0 miWest (270°)11.5 mphOvercast
8:00 AM39.2 °F28.4 °F65 %30.10 in15.0 miWest (270°)11.5 mphOvercast
9:00 AM41.0 °F28.4 °F61 %30.11 in15.0 miWest (260°)11.5 mphOvercast
10:00 AM41.0 °F28.4 °F61 %30.14 in15.0 miWNW (290°)12.7 mphOvercast
11:00 AM41.0 °F28.4 °F61 %30.17 in15.0 miWest (270°)10.4 mphOvercast
12:00 PM42.8 °F26.6 °F53 %30.17 in15.0 miWest (260°)8.1 mphOvercast
1:00 PM46.4 °F30.2 °F53 %30.15 in30.0 miWSW (250°)6.9 mphMostly Cloudy
2:00 PM46.0 °F30.0 °F40 %30.14 in28.0 miSSW (210°)8.1 mphScattered Clouds
2:00 PM46.4 °F30.2 °F53 %30.14 in30.0 miSSW (210°)5.8 mphPartly Cloudy
3:00 PM46.4 °F28.4 °F50 %30.14 in30.0 miSW (220°)10.4 mphScattered Clouds
4:00 PM46.4 °F28.4 °F50 %30.11 in30.0 miSouth (170°)4.6 mphMostly Cloudy
5:00 PM46.4 °F28.4 °F50 %30.08 in15.0 miEast (100°)5.8 mphMostly Cloudy
6:00 PM48.2 °F28.4 °F46 %30.07 in15.0 miEast (100°)4.6 mphOvercast
7:00 PM46.4 °F28.4 °F50 %30.06 in15.0 miENE (60°)6.9 mphOvercast
8:00 PM44.0 °F32.0 °F52 %30.06 in15.0 miNE (50°)12.7 mphOvercast
8:00 PM44.6 °F32.0 °F61 %30.06 in15.0 miNE (50°)12.7 mphOvercast
9:00 PM42.8 °F32.0 °F66 %30.07 in15.0 miENE (60°)11.5 mphOvercast
10:00 PM42.8 °F30.2 °F61 %30.03 in15.0 miENE (60°)10.4 mphOvercast
11:00 PM42.8 °F30.2 °F61 %29.99 in15.0 miENE (60°)12.7 mphOvercast
Hourly data recorded from CYUL, located miles away from Montreal, Quebec







STORIES FROM OUR PARTNERS